Location: Fontevrault
(47.1823°N, 0.0493°E)
Time: 10:41:54
(UTC+00:00)

Cosmos 2322 Rocket - Pass Details

Date: 16 June 2021
Orbit: 833 x 850 km, 71.0° (Epoch: 27 July)

Event Time Altitude Azimuth Distance (km) Brightness Sun altitude
Rises 21:43:10 0° 218° (SW) 3,400 5.1 -12.9°
Reaches altitude 10° 21:45:39 10° 223° (SW) 2,470 4.5 -13.2°
Maximum altitude 21:51:14 57° 302° (WNW) 996 2.9 -13.6°
Drops below altitude 10° 21:56:52 10° 21° (NNE) 2,487 5.2 -14.1°
Sets 21:59:23 0° 25° (NNE) 3,426 5.9 -14.3°
